Weather History for Kansas City International, MO

Change the Weather History Date:

Thursday, March 21, 2013

  Actual Average Record
Temperature  
Mean Temperature 26 °F 46 °F  
Max Temperature 29 °F 57 °F 91 °F (1907)
Min Temperature 22 °F 35 °F 13 °F (1913)
Degree Days  
Heating Degree Days 39 19  
Month to date heating degree days 587 475  
Since 1 July heating degree days 4319 4520  
Cooling Degree Days 0 0  
Month to date cooling degree days 0 0  
Year to date cooling degree days 0 0  
Moisture  
Dew Point 15 °F    
Average Humidity 62    
Maximum Humidity 81    
Minimum Humidity 42    
Precipitation  
Precipitation 0.05 in 0.08 in 1.19 in (1932)
Month to date precipitation 1.45 1.48  
Year to date precipitation 4.34 4.01  
Snow  
Snow 0.20 in 0.00 in 5.00 in (1955)
Month to date snowfall 0.2 1.5  
Since 1 July snowfall 25.4 17.7  
Snow Depth T in    
Sea Level Pressure  
Sea Level Pressure 30.02 in    
Wind  
Wind Speed 11 mph (ESE)    
Max Wind Speed 20 mph    
Max Gust Speed 26 mph    
Visibility 8 miles    
Events Snow    
T = Trace of Precipitation, MM = Missing Value Source: NWS Daily Summary

Daily Weather History Graph

Daily Weather History Graph

Search for Another Location

Airport:

Trip Planner

Search our weather history database for the weather conditions in past years. The results will help you decide how hot, cold, wet, or windy it might be!

Date:

Astronomy

Mar. 21, 2013 Rise Set
Actual Time 7:20 AM CDT 7:32 PM CDT
Civil Twilight 6:53 AM CDT 7:58 PM CDT
Nautical Twilight 6:22 AM CDT 8:30 PM CDT
Astronomical Twilight 5:50 AM CDT 9:02 PM CDT
Moon 2:04 PM CDT (3/21) 3:40 AM CDT (3/21)
Length of Visible Light 13h 05m
Length of Day
12h 11m
Waxing Gibbous, 69% of the Moon is Illuminated
Mar 21
Waxing Gibbous
Mar 27
Full
Apr 2
Last Quarter
Apr 10
New
Apr 18
First Quarter

Hourly Weather History & Observations

Time (CDT) Temp. Windchill Dew Point Humidity Pressure Visibility Wind Dir Wind Speed Gust Speed Precip Events Conditions
12:53 AM 26.1 °F 21.9 °F 7.0 °F 44% 30.13 in 10.0 mi East 3.5 mph - N/A   Scattered Clouds
1:53 AM 26.1 °F 18.4 °F 8.1 °F 47% 30.12 in 10.0 mi East 6.9 mph - N/A   Scattered Clouds
2:53 AM 25.0 °F 20.7 °F 8.1 °F 49% 30.13 in 10.0 mi SE 3.5 mph - N/A   Mostly Cloudy
3:53 AM 25.0 °F 16.3 °F 8.1 °F 49% 30.09 in 10.0 mi East 8.1 mph - N/A   Mostly Cloudy
4:53 AM 25.0 °F 14.8 °F 8.1 °F 49% 30.07 in 10.0 mi East 10.4 mph - N/A   Mostly Cloudy
5:53 AM 26.1 °F 16.2 °F 9.0 °F 49% 30.06 in 10.0 mi East 10.4 mph - N/A   Overcast
6:53 AM 25.0 °F 14.2 °F 9.0 °F 51% 30.09 in 10.0 mi ESE 11.5 mph - N/A   Overcast
7:53 AM 25.0 °F 13.1 °F 10.0 °F 53% 30.10 in 10.0 mi East 13.8 mph - N/A   Overcast
8:53 AM 25.0 °F 12.6 °F 10.9 °F 55% 30.09 in 10.0 mi ESE 15.0 mph - N/A   Overcast
9:53 AM 26.1 °F 14.5 °F 10.9 °F 53% 30.06 in 9.0 mi East 13.8 mph 21.9 mph 0.00 in Snow Light Snow
10:53 AM 26.1 °F 14.0 °F 10.9 °F 53% 30.04 in 10.0 mi ESE 15.0 mph - 0.00 in   Overcast
11:53 AM 27.0 °F 16.1 °F 12.9 °F 56% 30.04 in 7.0 mi ESE 12.7 mph - 0.00 in Snow Light Snow
12:02 PM 26.6 °F 16.8 °F 15.8 °F 64% 30.01 in 2.0 mi ESE 10.4 mph - 0.00 in Snow Light Snow
12:16 PM 24.8 °F 14.6 °F 17.6 °F 74% 30.01 in 1.5 mi ESE 10.4 mph - 0.00 in Snow Light Snow
12:42 PM 24.8 °F 15.3 °F 19.4 °F 80% 30.00 in 2.0 mi ESE 9.2 mph - 0.01 in Snow Light Snow
12:53 PM 25.0 °F 14.8 °F 19.0 °F 78% 30.03 in 2.0 mi East 10.4 mph - 0.01 in Snow Light Snow
1:19 PM 24.8 °F 13.4 °F 19.4 °F 80% 29.98 in 1.5 mi East 12.7 mph - 0.02 in Snow Light Snow
1:29 PM 24.8 °F 12.9 °F 19.4 °F 80% 29.97 in 1.0 mi East 13.8 mph - 0.03 in Snow Light Snow
1:44 PM 24.8 °F 12.4 °F 19.4 °F 80% 29.96 in 1.0 mi East 15.0 mph - 0.03 in Snow Light Snow
1:53 PM 26.1 °F 15.0 °F 21.0 °F 81% 29.99 in 1.2 mi East 12.7 mph - 0.04 in Snow Light Snow
2:05 PM 26.6 °F 15.2 °F 19.4 °F 74% 29.95 in 1.5 mi ESE 13.8 mph 17.3 mph 0.00 in Snow Light Snow
2:21 PM 26.6 °F 14.3 °F 19.4 °F 74% 29.94 in 2.5 mi East 16.1 mph - 0.00 in Snow Light Snow
2:35 PM 26.6 °F 14.3 °F 19.4 °F 74% 29.94 in 7.0 mi ESE 16.1 mph - 0.00 in Snow Light Snow
2:53 PM 26.6 °F 15.7 °F 19.4 °F 74% 29.94 in 9.0 mi ESE 12.7 mph - N/A Snow Light Snow
3:53 PM 27.0 °F 16.1 °F 19.0 °F 72% 29.95 in 10.0 mi ESE 12.7 mph - 0.00 in   Overcast
4:53 PM 28.0 °F 17.0 °F 19.9 °F 72% 29.94 in 10.0 mi East 13.8 mph - N/A   Overcast
5:53 PM 28.0 °F 17.5 °F 19.0 °F 69% 29.94 in 9.0 mi East 12.7 mph - 0.00 in Snow Light Snow
6:53 PM 28.0 °F 18.1 °F 19.0 °F 69% 29.95 in 9.0 mi East 11.5 mph - 0.00 in Snow Light Snow
7:53 PM 28.0 °F 19.3 °F 19.0 °F 69% 29.97 in 10.0 mi East 9.2 mph - 0.00 in   Overcast
8:53 PM 28.0 °F 20.8 °F 19.9 °F 72% 29.96 in 10.0 mi East 6.9 mph - N/A   Overcast
9:53 PM 28.9 °F 21.1 °F 21.0 °F 72% 29.97 in 10.0 mi East 8.1 mph - N/A   Overcast
10:53 PM 28.9 °F 21.9 °F 21.0 °F 72% 29.98 in 10.0 mi East 6.9 mph - N/A   Overcast
11:53 PM 28.9 °F 21.1 °F 21.9 °F 75% 29.98 in 10.0 mi ENE 8.1 mph - N/A   Overcast